Theta_e
346 343 344 340 325 322 315 316 320 318 320 327 329 326 324 327 323 321 343 339 339 346 353 355 357 355 353 353 353 354 357 359 358 357 358 358 358 357 356 355 353 351 349 347 347 350 353 354 356
338 341 341 332 319 314 313 318 316 320 326 329 330 328 326 326 334 338 339 339 341 347 351 351 356 353 353 353 353 356 356 357 357 357 357 357 357 355 354 352 349 347 346 350 353 353 354 356 357
338 338 327 324 318 311 312 318 321 323 326 327 326 331 330 330 336 339 341 340 344 346 347 352 355 355 353 352 352 354 355 356 355 355 356 356 355 353 351 348 346 347 351 353 355 355 356 356 357
332 329 327 319 313 317 318 321 324 322 324 326 325 324 335 341 338 341 341 342 344 345 346 352 356 355 355 352 352 353 354 354 355 354 355 354 353 351 349 345 345 349 353 355 355 354 353 353 354
328 323 318 318 314 319 323 325 325 323 322 323 325 323 329 340 344 342 342 342 341 343 343 349 355 354 352 352 352 352 352 354 355 354 354 354 351 349 346 345 349 353 354 355 354 352 350 350 355
320 321 314 313 313 318 323 326 325 323 323 325 323 324 332 345 344 342 343 342 342 340 342 347 353 353 353 351 352 353 354 353 353 353 353 352 350 347 344 348 353 354 354 355 353 349 354 353 359
319 316 312 313 314 317 321 327 323 322 321 323 327 322 335 341 345 345 344 342 341 340 339 342 344 350 350 351 352 351 351 351 351 351 351 350 348 345 347 351 353 354 355 354 348 359 358 359 361
319 318 312 315 315 315 323 324 324 323 322 331 330 321 328 340 347 344 341 339 338 337 335 336 339 341 343 345 351 350 350 350 351 351 351 350 348 348 352 353 355 355 352 347 357 359 361 359 357
318 315 312 310 312 316 322 321 325 326 324 326 329 328 335 344 345 341 336 334 333 332 332 335 336 337 337 336 344 349 350 351 351 351 350 348 352 355 354 357 357 349 346 353 359 359 359 357 355
315 315 312 314 315 314 319 319 322 322 322 323 327 334 337 338 337 333 330 328 329 328 330 334 336 336 336 335 341 342 342 344 347 349 351 354 355 355 354 359 353 344 346 357 358 356 356 352 345
315 314 314 314 315 315 315 317 322 321 320 322 324 333 333 331 330 328 327 327 327 327 330 333 336 339 338 338 340 344 345 348 352 355 358 357 355 355 355 356 348 337 342 348 351 350 346 340 340
310 314 313 313 313 313 313 317 319 321 322 326 327 335 334 332 329 326 326 325 326 326 329 332 336 339 340 340 344 347 347 350 352 355 359 358 357 358 358 357 352 340 340 342 344 343 344 342 341
310 313 313 314 315 315 315 314 317 320 325 327 331 334 334 333 332 330 328 326 326 326 329 330 335 339 342 344 345 348 349 350 353 356 359 356 356 356 357 356 347 340 339 338 339 342 344 342 341
313 312 314 315 315 316 314 315 317 321 326 325 331 333 333 332 334 333 333 327 328 329 329 331 333 340 342 346 347 348 352 353 354 354 355 359 358 359 357 351 342 340 338 336 337 339 342 341 340
312 309 313 315 316 318 319 314 316 323 326 326 330 332 332 333 335 334 336 336 330 330 331 332 335 338 343 344 348 349 352 352 353 353 357 359 361 363 359 350 341 340 339 335 337 339 342 340 340
309 310 308 314 317 320 320 311 319 325 326 327 329 330 331 333 335 337 338 340 337 332 332 334 333 336 342 344 346 346 349 351 352 353 354 358 360 363 358 348 341 340 339 335 334 334 337 338 339
308 303 306 309 315 318 318 312 320 325 326 326 329 329 330 331 335 338 339 340 340 335 333 334 336 334 339 345 344 346 351 350 350 352 354 358 359 359 355 346 342 343 338 335 333 333 336 336 337
303 303 305 306 311 312 311 311 316 320 322 324 326 329 330 330 332 338 339 341 342 339 336 336 338 344 347 343 344 343 343 346 349 351 352 356 359 356 353 347 344 342 338 335 332 334 335 335 335
305 304 304 307 311 309 310 311 313 316 319 320 321 326 329 331 333 336 340 341 342 344 339 338 340 348 343 337 337 338 339 343 345 349 354 356 358 355 352 350 344 341 340 338 337 334 335 332 334
304 303 304 307 310 309 309 309 313 315 317 319 320 322 326 329 332 333 337 340 341 343 345 342 341 348 346 340 341 339 341 343 346 349 355 357 358 355 351 350 347 347 338 339 338 337 329 330 332
305 304 304 304 308 310 308 306 310 314 317 321 325 326 327 328 330 333 334 338 340 341 344 346 348 347 348 345 342 344 344 345 345 348 350 354 356 354 351 347 346 347 346 341 338 337 339 327 330
303 308 306 305 305 301 309 299 308 311 313 315 318 320 322 326 330 332 333 334 338 339 342 345 350 352 348 350 341 345 338 339 344 348 350 353 355 353 350 347 344 345 342 347 337 335 337 337 329
305 308 307 307 305 305 305 302 306 310 309 312 316 318 322 324 327 329 331 333 336 337 338 341 352 352 353 350 346 344 345 342 346 347 358 359 355 350 344 345 344 340 340 337 339 339 338 332 330
310 308 308 308 306 299 304 303 303 308 310 313 315 317 319 322 322 324 327 330 332 335 336 338 348 352 353 352 351 347 347 347 344 346 346 349 345 343 340 343 342 337 335 333 330 336 339 337 336
309 306 299 299 299 299 305 302 305 311 314 314 314 319 324 326 327 328 328 329 334 332 333 336 345 348 350 351 351 349 348 352 350 352 349 347 339 335 337 338 338 334 330 326 333 332 335 335 332
307 307 301 294 296 300 305 300 306 314 315 316 320 324 327 328 330 331 332 334 335 338 341 338 336 343 343 349 349 351 350 347 349 352 351 347 345 344 337 342 339 337 332 332 333 331 332 336 331
308 304 309 304 305 300 303 307 311 314 316 318 320 323 324 326 328 330 332 334 334 336 338 342 337 338 343 345 348 349 351 350 348 352 358 350 349 349 345 342 342 339 336 332 332 329 332 334 332
309 311 303 305 297 295 301 303 304 311 315 318 319 320 322 324 324 325 328 332 334 336 337 339 343 336 337 341 344 345 349 352 352 355 358 355 355 350 345 344 344 342 337 335 330 330 332 330 328
307 306 307 306 304 297 296 301 312 316 316 317 318 319 320 321 322 323 324 327 329 331 334 336 337 342 341 337 339 344 346 350 354 354 358 358 356 353 344 345 345 342 337 335 333 332 329 327 328
309 307 307 302 301 304 302 301 316 316 316 317 317 318 320 321 321 322 323 324 325 327 329 331 335 335 340 345 342 341 342 346 354 355 357 354 354 351 347 346 345 342 338 336 333 330 328 327 326
Wind_Speed
12 12 6 7 9 8 7 9 2 6 4 2 6 3 2 7 8 7 8 8 16 17 18 16 15 15 15 15 15 14 13 13 14 14 13 13 12 10 8 8 7 7 6 6 5 5 5 5 6
9 7 6 5 10 4 9 3 5 4 6 6 6 5 4 5 4 10 13 12 17 16 16 16 15 14 16 16 15 13 13 13 14 13 14 12 10 8 7 6 5 4 5 5 5 4 4 4 5
9 7 7 5 4 9 10 4 8 9 6 7 5 5 3 6 4 11 15 18 17 15 15 15 14 15 15 16 16 15 14 13 14 13 12 11 9 7 5 4 4 4 5 5 5 5 4 4 4
6 6 6 9 8 9 7 5 6 6 3 1 1 6 6 4 8 8 17 18 16 15 15 18 15 14 14 15 15 15 14 13 13 12 11 10 8 6 4 3 4 4 5 4 4 3 2 2 3
7 5 7 3 6 5 2 2 4 2 1 3 2 6 6 7 9 16 17 15 15 14 13 17 13 14 14 15 15 14 14 12 12 12 11 9 7 5 3 3 5 5 5 5 4 4 2 1 6
7 5 8 5 6 2 2 1 4 4 1 4 3 6 8 10 13 15 15 14 12 12 11 15 13 12 12 13 14 13 12 11 10 10 9 7 5 3 2 4 4 4 3 3 4 5 2 7 9
11 7 6 2 4 3 5 1 3 4 1 1 2 4 7 10 13 14 14 13 12 11 10 12 14 13 12 12 12 12 10 10 9 8 7 6 5 3 2 3 2 2 2 4 6 8 10 11 12
7 6 2 3 6 9 6 2 0 5 6 8 1 2 8 14 14 14 14 13 12 11 10 12 12 14 13 14 12 11 10 9 8 8 7 6 5 4 4 5 5 3 2 6 8 10 12 13 12
5 7 4 6 3 9 6 1 2 3 4 3 4 3 8 18 17 16 14 13 12 10 11 11 12 13 13 14 12 10 10 9 8 9 7 8 9 9 11 10 5 4 7 9 11 13 13 13 11
8 8 4 6 6 6 3 4 7 7 7 6 7 7 16 18 18 17 16 14 14 14 13 12 12 13 12 10 13 11 11 10 10 10 10 9 6 4 4 7 7 7 9 11 11 12 16 16 10
4 9 6 4 4 4 3 4 5 8 6 6 9 14 18 17 17 16 15 15 15 15 12 13 12 11 13 10 10 7 7 7 7 9 9 5 6 7 7 7 7 6 7 8 10 9 6 7 5
9 7 4 4 1 4 6 4 6 11 2 1 7 17 19 18 17 16 15 15 15 16 15 15 14 12 11 9 8 9 7 8 7 9 10 7 6 5 4 3 4 4 3 4 5 4 6 6 5
11 9 3 6 7 8 9 11 10 9 8 5 11 16 19 18 16 14 14 14 15 16 16 16 15 13 12 11 10 9 9 9 9 9 10 8 7 5 6 4 5 4 4 4 4 5 5 6 6
4 8 12 9 6 8 10 6 5 6 12 11 13 16 18 19 18 16 15 15 15 15 16 16 17 15 14 12 11 9 9 10 9 9 9 10 7 6 6 5 5 5 5 4 4 5 6 5 6
6 11 10 9 4 3 5 8 13 5 12 13 15 14 16 18 19 19 17 15 16 15 16 17 16 16 15 15 12 9 9 10 9 8 9 10 9 7 6 6 6 5 5 6 3 5 5 5 6
10 7 12 7 3 5 7 12 16 11 12 13 15 15 16 19 20 19 18 17 17 16 18 17 16 18 18 15 12 11 10 10 9 9 8 11 10 7 8 6 6 6 5 5 6 6 7 6 6
10 13 9 6 1 4 8 11 8 6 10 11 12 14 16 18 20 19 20 19 18 18 18 19 19 19 19 16 12 12 12 10 10 10 10 12 12 11 8 8 7 7 6 6 6 6 6 6 6
11 11 8 12 5 8 10 11 11 8 8 11 12 13 16 18 22 21 21 20 19 18 18 18 16 17 16 13 12 11 11 11 11 11 11 13 10 12 11 9 8 8 7 7 6 6 6 7 7
7 9 11 9 8 9 14 10 12 5 8 13 13 13 16 20 16 19 20 20 19 19 18 18 17 17 14 14 14 13 13 13 13 13 15 14 12 12 11 7 9 10 8 8 8 7 7 7 7
7 10 12 11 11 8 15 13 14 9 10 11 14 12 15 16 17 18 20 20 21 21 21 20 19 17 16 13 12 13 13 14 14 12 13 13 13 12 10 8 8 9 8 9 10 10 8 7 9
11 10 8 9 2 13 14 17 18 14 7 9 11 12 13 14 16 18 19 23 23 22 24 21 20 19 18 17 12 10 11 12 13 13 13 14 15 13 10 10 8 7 6 7 10 11 11 9 10
10 10 6 6 9 10 8 12 14 11 7 9 10 11 10 8 10 14 18 20 23 24 22 23 21 20 18 19 17 19 15 16 13 13 12 11 13 11 13 11 10 8 6 5 8 9 10 8 10
2 1 5 8 10 8 12 9 7 5 10 11 8 6 9 8 6 8 14 17 20 19 21 21 18 20 20 20 21 17 20 16 13 13 13 12 10 14 12 13 10 10 5 4 5 7 11 9 9
3 10 8 8 11 11 14 7 11 4 4 7 4 8 5 8 6 6 6 10 15 18 20 21 20 21 22 22 23 23 22 20 16 16 13 12 11 9 13 13 15 11 12 9 7 10 11 11 9
10 11 10 10 10 8 6 6 10 12 8 6 3 6 9 9 10 10 10 9 9 11 15 16 20 21 21 22 23 26 26 22 23 18 15 17 13 9 16 15 15 13 16 17 14 12 11 11 9
10 8 9 8 9 10 7 7 9 11 7 5 7 7 9 11 11 12 12 10 9 8 8 13 18 20 22 22 25 22 25 18 18 20 16 15 16 17 18 20 19 19 18 12 14 11 12 12 11
5 11 6 10 14 12 14 12 10 5 8 6 8 8 11 11 12 12 13 14 12 12 11 10 12 17 18 21 19 21 20 23 20 22 20 17 18 14 19 21 20 20 18 14 11 11 13 11 11
9 5 7 9 12 16 12 6 9 12 8 6 8 10 11 11 12 13 13 14 13 14 13 15 12 10 12 17 17 17 20 21 20 17 20 20 18 17 20 21 22 20 18 16 13 11 10 11 11
4 9 6 6 8 12 14 7 6 9 7 6 8 10 12 13 14 14 14 14 15 15 16 16 17 13 10 10 13 16 17 18 18 18 18 19 18 20 21 22 22 22 20 18 15 14 15 17 15
10 10 7 9 11 9 8 12 8 8 8 8 9 10 11 13 14 14 15 16 16 17 17 18 16 16 17 10 10 14 16 17 16 17 17 18 20 20 22 22 22 22 21 19 18 19 19 19 17
Wind_Direction
164 183 210 233 237 244 91 90 73 109 146 119 137 188 285 11 354 26 134 133 137 136 134 148 144 144 146 142 140 140 138 131 129 129 128 124 126 127 117 100 90 83 75 68 62 52 43 37 34
169 184 223 271 259 212 90 69 70 63 93 153 149 172 196 94 54 113 138 156 150 133 141 148 146 150 153 148 147 147 142 135 134 137 137 134 132 126 113 101 88 75 71 71 67 56 49 52 50
190 239 265 276 305 57 94 85 99 102 137 168 149 285 70 74 98 135 108 148 143 145 153 136 154 156 158 155 154 155 150 145 145 145 140 138 138 134 121 93 65 50 47 42 40 32 21 30 49
205 202 220 258 79 81 44 101 131 133 132 220 48 126 113 21 144 125 143 150 151 151 148 138 157 161 159 160 159 159 159 157 153 149 148 151 149 133 110 72 48 38 41 47 51 44 25 46 89
224 249 247 218 82 81 79 38 174 167 29 148 244 106 84 101 105 134 147 157 159 151 148 153 161 163 164 165 165 165 163 163 162 161 159 157 143 131 103 48 32 34 45 47 40 21 352 122 126
229 275 236 152 87 85 151 117 219 257 215 94 217 135 97 122 139 146 154 163 156 149 148 137 159 166 169 170 169 170 168 167 165 164 159 150 139 128 90 56 46 48 47 33 20 26 65 128 127
274 255 26 27 67 69 62 158 198 202 264 88 49 139 93 152 138 150 158 155 153 155 162 154 164 169 175 176 178 175 172 169 166 162 153 148 150 140 105 82 73 52 19 27 48 79 92 109 112
283 274 195 72 67 71 99 169 218 228 108 90 333 61 152 146 153 153 159 161 160 163 164 163 168 170 177 170 181 176 176 174 168 160 159 163 163 168 175 178 105 50 45 64 99 105 106 107 109
263 254 94 83 35 94 108 223 167 106 133 177 126 12 101 141 154 161 165 167 167 169 167 170 173 166 179 164 160 176 179 176 168 174 172 192 184 175 179 76 89 100 85 102 112 112 113 105 101
246 272 64 43 48 27 105 302 161 207 170 178 155 112 133 153 163 170 174 175 176 175 172 175 180 163 171 159 153 181 169 179 182 182 172 211 151 154 45 102 120 110 102 114 118 133 150 170 138
189 268 43 350 336 303 314 248 206 234 215 202 193 154 158 164 171 179 183 180 178 173 174 180 176 174 171 173 165 177 172 172 177 180 186 176 176 174 205 151 161 155 188 147 163 176 201 72 91
251 234 271 313 67 276 282 303 236 242 297 36 170 160 165 173 179 184 185 181 178 175 178 181 175 178 189 176 188 175 185 179 183 185 187 177 208 186 211 195 132 183 171 132 190 153 92 109 115
240 264 273 258 284 281 292 262 247 240 207 175 148 164 172 180 183 186 187 183 179 180 180 184 180 183 186 201 186 187 195 194 190 183 190 195 213 206 195 150 198 183 166 175 176 127 155 139 129
8 295 286 275 280 263 262 267 208 216 178 185 175 179 178 184 187 183 191 190 186 185 184 190 189 180 194 203 200 194 197 189 200 193 190 207 218 198 197 176 193 182 196 173 174 158 164 170 142
274 277 263 245 295 277 239 201 224 149 159 183 192 189 185 189 190 191 190 196 189 188 192 193 197 186 206 197 201 207 199 205 202 204 199 212 214 196 219 194 189 183 185 175 173 181 175 173 157
246 241 253 123 226 122 236 266 192 154 182 192 198 195 192 192 194 194 191 197 193 197 194 197 197 193 196 205 199 206 207 213 207 209 201 209 212 207 210 195 196 177 185 190 185 182 181 170 163
212 258 221 215 186 176 236 274 95 159 203 216 209 208 203 199 200 195 197 195 199 200 195 202 200 204 198 207 208 212 208 215 211 210 210 201 212 197 205 204 192 183 193 186 197 182 180 163 173
239 222 227 266 153 242 255 251 268 196 237 237 227 218 216 216 205 197 200 198 196 199 207 205 203 210 198 196 213 212 214 215 219 215 217 207 212 204 201 192 182 199 197 188 196 188 181 173 178
284 267 266 272 262 281 264 273 274 287 242 247 240 218 224 227 220 201 199 201 200 200 205 211 211 202 201 199 199 210 210 211 216 217 215 210 210 203 198 194 187 197 205 204 180 178 181 175 164
240 255 253 254 265 253 263 254 260 255 249 268 277 253 229 229 221 212 195 204 204 205 205 208 213 210 208 203 211 211 212 213 214 212 212 214 205 199 191 204 194 210 193 190 192 182 175 186 178
228 253 259 271 180 242 262 263 253 240 244 258 259 263 260 244 229 212 208 206 207 208 207 206 205 209 206 217 209 217 227 230 212 214 206 208 201 194 201 191 192 197 249 199 194 195 191 179 194
250 194 244 265 252 265 198 270 216 221 242 252 265 254 261 248 237 235 215 218 218 218 213 212 207 206 203 201 213 211 216 217 219 215 208 198 201 209 180 184 189 173 219 231 211 213 204 217 197
308 75 283 283 256 293 213 251 262 144 246 248 277 301 332 327 301 239 226 229 231 225 228 222 215 213 211 203 213 211 218 220 219 217 207 191 174 175 192 185 175 156 171 223 221 247 236 203 209
323 268 241 246 255 243 250 257 277 223 230 287 35 47 27 30 21 9 337 285 247 237 226 231 213 215 212 210 208 216 220 223 222 218 202 183 174 185 187 185 174 167 164 193 226 197 228 243 222
235 254 256 225 213 248 82 252 273 318 334 36 68 52 42 27 32 26 18 5 354 303 260 241 221 219 216 216 216 214 217 213 218 219 196 184 171 188 189 184 177 172 190 195 195 200 194 216 218
204 264 283 296 279 287 143 251 255 82 57 94 78 58 36 25 18 9 15 12 1 348 322 295 260 231 224 220 221 219 219 220 216 214 200 188 194 190 179 180 188 187 201 198 201 207 199 200 206
160 231 304 280 266 259 268 254 226 115 109 87 63 44 31 19 14 7 8 7 1 3 346 321 291 277 228 230 225 225 221 223 220 218 204 193 206 197 182 188 185 195 194 193 199 206 196 196 199
263 10 246 213 262 270 267 255 252 162 100 58 43 28 23 14 11 5 2 3 359 2 4 359 344 317 269 240 234 229 228 225 223 219 213 206 205 200 184 187 190 190 191 192 188 204 186 187 192
215 233 206 300 292 290 284 276 21 72 64 43 25 14 8 2 2 358 1 1 357 359 2 8 359 344 318 280 250 240 240 229 226 223 216 205 202 200 188 191 189 187 189 190 186 197 186 193 191
278 287 279 268 269 244 293 282 93 88 62 14 7 6 2 358 360 356 355 357 358 1 2 358 355 359 345 308 265 259 243 243 228 224 219 204 207 201 195 192 192 187 189 186 187 192 191 195 190